Hourly Data Report for July 23, 2021

HALIFAX STANFIELD INT'L A
NOVA SCOTIA
Current Station Operator: NAVCAN

44°52'52.000" N
63°30'31.000" W
145.40 m
8202251
71395
YHZ

Download Data

Hourly Data (July 2021)
Hourly Data Report for July 23, 2021
TIME
LST
Temp Definition
°C
Dew Point Definition
°C
Rel Hum Definition
%
Precip. Amount Definition
mm

Wind Dir Definition
10's deg

Wind Spd Definition
km/h
Visibility Definition
km
Stn Press Definition
kPa
Hmdx Definition


Wind Chill Definition


Weather Definition


00:00 14.6 14.3 98   32 15 24.1 99.73     LegendNANA
01:00 13.8 13.7 99   31 12 24.1 99.78     LegendNANA
02:00 13.4 13.4 100   31 14 24.1 99.76     Mainly Clear
03:00 13.0 13.0 100   32 16 16.1 99.74     LegendNANA
04:00 13.0 13.0 100   33 16 12.9 99.74     LegendNANA
05:00 12.6 12.6 100   31 7 19.3 99.81     Mostly Cloudy
06:00 13.4 13.4 100   28 9 19.3 99.89     LegendNANA
07:00 14.6 13.9 96   29 8 24.1 99.93     LegendNANA
08:00 15.8 13.4 86   34 5 24.1 99.96     Mainly Clear
09:00 17.4 11.9 70   3 3 24.1 99.97     LegendNANA
10:00 18.7 13.3 70   36 2 24.1 99.96     LegendNANA
11:00 20.4 13.9 66   28 8 24.1 99.95     Mostly Cloudy
12:00 21.0 13.0 60   30 10 24.1 99.91     LegendNANA
13:00 19.9 14.8 72   21 16 24.1 99.87     LegendNANA
14:00 16.8 16.2 97   17 14 19.3 99.90     Rain Showers
15:00 18.6 16.8 89   19 11 24.1 99.90     LegendNANA
16:00 20.4 15.0 71   21 21 24.1 99.85     LegendNANA
17:00 19.6 14.9 74   22 17 24.1 99.87     Mainly Clear
18:00 18.9 15.2 79   20 10 24.1 99.87     LegendNANA
19:00 19.4 14.7 74   26 13 24.1 99.91     LegendNANA
20:00 17.9 15.0 83   24 13 24.1 99.94     Mainly Clear
21:00 16.4 14.9 91   36 7 24.1 100.04     LegendNANA
22:00 15.9 13.6 86   33 9 24.1 100.03     LegendNANA
23:00 14.9 13.1 89   32 10 24.1 100.04     Mainly Clear

Notes on Data Quality.

Legend

  • E = Estimated
  • M = Missing
  • NA = Not Available*
  • [empty] = Indicates an unobserved value
Date modified: